[Date Prev][Date Next][Thread Prev][Thread Next] - [Date Index][Thread Index][Author Index]

2 Line ISS Keps 1-16



ISS
1 25544U 98067A   02016.20463691  .00060422  00000-0  81262-3 0  9648
2 25544  51.6418  96.8224 0006935 310.4241  78.7356 15.57268677180320


----
Via the sarex mailing list at AMSAT.ORG courtesy of AMSAT-NA.
To unsubscribe, send "unsubscribe sarex" to Majordomo@amsat.org



AMSAT Top AMSAT Home